Simultaneous Nadir Overpasses (SNOs) Predictions

Prediction of SNOs between METOP-B and NPP Satellite Orbit:

Table of predicted SNOs for the next 14.0 days since TLE Epoch: 5/18/2018
Index Date (METOP-B) Time (METOP-B) Lat,Lon (METOP-B) SZA (METOP-B ) Date (NPP) Time (NPP) Lat,Lon (NPP) SZA (NPP ) Distance(km) Time Diff (sec)
1 05/20/2018 10:16:34 73.63, 19.26 53.62 05/20/2018 10:15:28 73.60, 16.11 53.74 99.10 66
2 05/20/2018 11:07:18 -73.54,-173.61 126.47 05/20/2018 11:06:11 -73.55,-176.46 126.33 89.79 67
3 05/20/2018 11:58:02 73.30, -6.81 53.31 05/20/2018 11:56:52 73.30, -8.59 53.40 57.06 70
4 05/20/2018 12:48:46 -73.22, 160.33 126.78 05/20/2018 12:47:35 -73.25, 158.83 126.67 48.13 71
5 05/20/2018 13:39:29 73.03, -32.75 53.04 05/20/2018 13:38:16 73.00, -33.32 53.06 18.74 73
6 05/20/2018 14:30:13 -72.94, 134.39 127.05 05/20/2018 14:28:59 -72.96, 134.10 127.01 9.72 74
7 05/20/2018 15:20:54 72.85, -58.46 52.87 05/20/2018 15:19:43 72.86, -58.38 52.88 2.57 71
8 05/20/2018 16:11:36 -72.87, 108.90 127.13 05/20/2018 16:10:27 -72.86, 108.93 127.13 1.42 69
9 05/20/2018 17:02:15 72.88, -83.74 52.88 05/20/2018 17:01:13 72.86, -83.77 52.87 2.21 62
10 05/20/2018 17:52:58 -72.85, 83.51 127.16 05/20/2018 17:51:57 -72.86, 83.54 127.13 2.31 61
11 05/20/2018 18:43:37 72.86,-109.13 52.84 05/20/2018 18:42:43 72.87,-109.15 52.86 1.31 54
12 05/20/2018 19:34:19 -72.87, 58.23 127.15 05/20/2018 19:33:27 -72.87, 58.16 127.14 2.34 52
13 05/20/2018 20:24:59 72.83,-134.52 52.81 05/20/2018 20:24:12 72.82,-134.43 52.80 3.22 47
14 05/20/2018 21:15:41 -72.85, 32.84 127.19 05/20/2018 21:14:56 -72.82, 32.88 127.21 3.20 45
15 05/20/2018 22:06:21 72.81,-159.91 52.77 05/20/2018 22:05:42 72.83,-159.81 52.79 3.51 39
16 05/20/2018 22:57:02 -72.83, 7.45 127.22 05/20/2018 22:56:25 -72.83, 7.50 127.22 1.42 37
17 05/20/2018 23:47:41 72.84, 174.81 52.78 05/20/2018 23:47:11 72.83, 174.80 52.78 0.80 30
18 05/21/2018 00:38:23 -72.85, -17.83 127.21 05/21/2018 00:37:55 -72.83, -17.89 127.23 3.01 28
19 05/21/2018 01:29:03 72.81, 149.42 52.75 05/21/2018 01:28:41 72.84, 149.42 52.77 2.43 22
20 05/21/2018 02:19:45 -72.83, -43.22 127.25 05/21/2018 02:19:25 -72.84, -43.27 127.23 2.01 20
21 05/21/2018 03:10:25 72.79, 124.03 52.71 05/21/2018 03:10:10 72.79, 124.14 52.71 3.39 15
22 05/21/2018 04:01:07 -72.81, -68.61 127.28 05/21/2018 04:00:54 -72.79, -68.55 127.30 2.41 13
23 05/21/2018 04:51:46 72.82, 98.75 52.72 05/21/2018 04:51:40 72.80, 98.75 52.70 2.55 6
24 05/21/2018 05:42:29 -72.79, -93.99 127.32 05/21/2018 05:42:24 -72.80, -93.94 127.31 2.38 5
25 05/21/2018 06:33:08 72.80, 73.36 52.69 05/21/2018 06:33:10 72.80, 73.37 52.69 0.62 2
26 05/21/2018 07:23:50 -72.81,-119.28 127.31 05/21/2018 07:23:54 -72.80,-119.32 127.32 1.81 4
27 05/21/2018 08:14:29 72.82, 48.08 52.70 05/21/2018 08:14:40 72.81, 47.98 52.68 3.72 11
28 05/21/2018 09:05:12 -72.79,-144.66 127.34 05/21/2018 09:05:24 -72.81,-144.71 127.32 2.52 12
29 05/21/2018 09:55:51 72.80, 22.69 52.66 05/21/2018 09:56:10 72.81, 22.60 52.67 3.34 19
30 05/21/2018 10:46:34 -72.77,-170.05 127.38 05/21/2018 10:46:53 -72.76,-169.99 127.39 2.22 19
31 05/21/2018 11:37:13 72.78, -2.70 52.63 05/21/2018 11:37:39 72.76, -2.68 52.61 1.32 26
32 05/21/2018 12:27:55 -72.79, 164.66 127.37 05/21/2018 12:28:23 -72.77, 164.63 127.40 3.10 28
33 05/21/2018 13:18:35 72.75, -28.08 52.59 05/21/2018 13:19:09 72.77, -28.07 52.60 2.03 34
34 05/21/2018 14:09:17 -72.77, 139.28 127.40 05/21/2018 14:09:53 -72.77, 139.24 127.41 1.08 36
35 05/21/2018 14:59:56 72.78, -53.37 52.60 05/21/2018 15:00:39 72.77, -53.45 52.59 2.80 43
36 05/21/2018 15:50:39 -72.75, 113.89 127.44 05/21/2018 15:51:22 -72.73, 113.96 127.47 3.35 43
37 05/21/2018 16:41:18 72.76, -78.76 52.57 05/21/2018 16:42:08 72.73, -78.73 52.53 3.16 50
38 05/21/2018 17:32:01 -72.72, 88.50 127.47 05/21/2018 17:32:52 -72.73, 88.58 127.48 2.77 51
39 05/21/2018 18:22:40 72.73,-104.14 52.53 05/21/2018 18:23:38 72.73,-104.12 52.52 0.96 58
40 05/21/2018 19:13:22 -72.75, 63.22 127.46 05/21/2018 19:14:22 -72.74, 63.20 127.49 1.74 60
41 05/21/2018 20:04:01 72.76,-129.43 52.54 05/21/2018 20:05:08 72.74,-129.50 52.51 3.38 67
42 05/21/2018 20:54:44 -72.73, 37.83 127.50 05/21/2018 20:55:52 -72.74, 37.81 127.49 1.68 68
43 05/21/2018 21:45:24 72.69,-154.92 52.46 05/21/2018 21:46:37 72.69,-154.78 52.45 4.70 73
44 05/21/2018 22:36:07 -72.65, 12.34 127.58 05/21/2018 22:37:21 -72.70, 12.53 127.56 7.92 74
45 05/21/2018 23:26:51 72.41, 179.18 52.20 05/21/2018 23:28:02 72.44,-179.65 52.17 39.58 71
46 05/22/2018 00:17:35 -72.33, -13.66 127.88 05/22/2018 00:18:45 -72.40, -12.24 127.89 48.52 70
47 05/22/2018 01:08:19 72.08, 153.20 51.89 05/22/2018 01:09:26 72.14, 155.57 51.83 81.39 67
48 05/22/2018 01:59:02 -72.05, -39.53 128.15 05/22/2018 02:00:09 -72.10, -37.02 128.23 86.12 67




NCC Satellite Simultaneous Nadir Overpasses (SNOs) Prediction Service
